User: anonymous   Login
Location: Unspecified
(0.0000°N, 0.0000°E)
Time: 19:03:54
(UTC+00:00)
Language:

DSP F17 - Orbit

View from above orbital plane
View from above orbital plane
View from above satellite
View from above satellite

Ground track
Ground track

The orbit data is extracted from the following two-line orbital elements,

1 23435U 94084A   19083.17340988 -.00000319  00000-0  00000+0 0  9996
2 23435  14.4580  16.0832 0001856  31.2590 145.2959  1.00252950  5207
Epoch (UTC): 24 March 2019 04:09:42
Eccentricity: 0.0001856
inclination: 14.4580°
perigee height: 35783 km
apogee height: 35799 km
right ascension of ascending node: 16.0832°
argument of perigee: 31.2590°
revolutions per day: 1.00252950
mean anomaly at epoch: 145.2959°
orbit number at epoch: 520

The dashed part of the orbit path shows where the satellite is in the earth's shadow,  

DLR